Regional Weather Roundup
Issued by NWS

Home | Current Version | Previous Version | Graphics & Text | Print | Product List | Glossary On
Versions: 1 2 3 4 5 6 7 8 9 10 11 12 13 14 15 16 17 18 19 20 21 22 23 24 25 26 27 28 29 30 31 32 33 34 35 36 37 38 39 40 41 42 43 44 45 46 47 48 49 50
000
ASUS43 KBIS 192201
RWRND

NORTH DAKOTA REGIONAL WEATHER ROUNDUP
NATIONAL WEATHER SERVICE BISMARCK ND
500 PM CDT SUN APR 19 2015

NOTE: "FAIR" INDICATES FEW OR NO CLOUDS BELOW 12,000 FEET WITH NO
SIGNIFICANT WEATHER AND/OR OBSTRUCTIONS TO VISIBILITY.


NDZ001>003-009>011-017-192300-
NORTHWEST NORTH DAKOTA

CITY           SKY/WX    TMP DP  RH WIND       PRES   REMARKS
WILLISTON      PTSUNNY   50  26  39 N23G30    30.00F
MINOT          LGT RAIN  45  30  55 NW28G36   29.88S
MINOT AFB      CLOUDY    45  33  61 NW28G33   29.87F
$$

NDZ018>021-031>035-040>046-192300-
SOUTHWEST NORTH DAKOTA

CITY           SKY/WX    TMP DP  RH WIND       PRES   REMARKS
BISMARCK       CLOUDY    48  29  47 NW28G41   29.89R
DICKINSON      CLOUDY    47  25  42 NW25G43   29.94F
GARRISON         N/A     46  32  58 NW29G36   29.89F
HETTINGER ARPT PTSUNNY   46  25  43 NW28G37   29.97S
$$

NDZ004>008-012>016-024-026-027-054-192300-
NORTHEAST NORTH DAKOTA

CITY           SKY/WX    TMP DP  RH WIND       PRES   REMARKS
GRAND FORKS    CLOUDY    44  39  82 NW21      29.73S
GRND FRKS AFB  CLOUDY    45  39  81 NW17G26   29.73S
DEVILS LAKE    CLOUDY    43  36  75 NW26G35   29.77R
$$

NDZ022-023-025-028>030-036>039-047>053-192300-
SOUTHEAST NORTH DAKOTA

CITY           SKY/WX    TMP DP  RH WIND       PRES   REMARKS
FARGO          CLOUDY    46  39  76 NW22G33   29.73S
JAMESTOWN      CLOUDY    46  35  65 NW25G35   29.77R
$$



USA.gov is the U.S. government's official web portal to all federal, state and local government web resources and services.